Terminal Aerodrome Forecast
Issued by NWS Green Bay, WI

Home | Current Version | Previous Version | Text Only | Print | Product List | Glossary Off
Versions: 1 2 3 4 5 6 7 8 9 10 11 12 13 14 15 16 17 18 19 20 21 22 23 24 25 26 27 28 29 30 31 32 33 34 35 36 37

000
FTUS43 KGRB 230500
TAFGRB
TAF
KGRB 230525Z 2306/2406 35009KT P6SM SCT090
     FM231500 02010G17KT P6SM SCT045
      TEMPO 2317/2321 BKN045
     FM232300 05007KT P6SM SKC=

USA.gov is the U.S. government's official web portal to all federal, state and local government web resources and services.